Tracking 19832 objects as of 25-Aug-2019
HD Live streaming from Space Station
objects crossing your sky now

FLOCK 2K 48

Track FLOCK 2K 48 now!
10-day predictions
FLOCK 2K 48 is classified as:


NORAD ID: 42855
Int'l Code: 2017-042AG
Perigee: 448.2 km
Apogee: 460.1 km
Inclination: 96.9 °
Period: 93.5 minutes
Semi major axis: 6825 km
RCS: Unknown
Launch date: July 14, 2017
Source: United States (US)
Launch site: TYURATAM MISSILE AND SPACE COMPLEX (TTMTR)
aabbcc
Your satellite tracking list
Your tracking list is empty




NASA's NSSDC Master Catalog

Two Line Element Set (TLE):
1 42855U 17042AG  19237.47598869  .00002924  00000-0  75913-4 0  9992
2 42855  96.9308 116.5746 0008721 349.2411  10.8648 15.39687256118394
Source of the keplerian elements: AFSPC